WB0VHB-WX Weather Reports


time (UTC)temp
C
wind
direction
speed
KPH
gust
KPH
rain 1hr
cm
rain 24hr
cm
rain mn
cm
humidity
%
barometer
mb
20260906155424 25 84 6.4 14.5 0.00 0.00 0.00 74 1017.8
20260906154503 25 103 8.0 14.5 0.00 0.00 0.00 73 1017.8
20260906153624 25 120 6.4 12.9 0.00 0.00 0.00 75 1017.8
20260906152724 24 103 6.4 14.5 0.00 0.00 0.00 76 1017.7
20260906151824 24 116 6.4 16.1 0.00 0.00 0.00 77 1017.7
20260906150924 23 102 6.4 14.5 0.00 0.00 0.00 78 1017.6
20260906150003 23 85 6.4 12.9 0.00 0.00 0.00 78 1017.6
20260906145403 23 83 6.4 14.5 0.00 0.00 0.00 79 1017.6
20260906144503 22 86 4.8 11.3 0.00 0.00 0.00 79 1017.6
20260906143603 22 77 4.8 12.9 0.00 0.00 0.00 80 1017.5
20260906142703 22 81 4.8 12.9 0.00 0.00 0.00 80 1017.4
20260906141803 22 80 6.4 12.9 0.00 0.00 0.00 80 1017.2
20260906140903 22 75 6.4 14.5 0.00 0.00 0.00 80 1017.2
20260906140004 22 86 8.0 16.1 0.00 0.00 0.00 80 1017.2
20260906135403 22 88 6.4 14.5 0.00 0.00 0.00 80 1017.2
20260906134524 22 85 6.4 16.1 0.00 0.00 0.00 80 1017.1
20260906133603 22 92 8.0 17.7 0.00 0.00 0.00 80 1017.0
20260906132703 22 86 6.4 16.1 0.00 0.00 0.00 81 1016.9
20260906131804 22 85 6.4 16.1 0.00 0.00 0.00 81 1016.8
20260906130925 22 88 6.4 14.5 0.00 0.00 0.00 81 1016.7
20260906130004 21 85 8.0 17.7 0.00 0.00 0.00 82 1016.5
20260906125403 21 85 6.4 17.7 0.00 0.00 0.00 82 1016.4
20260906124503 21 81 8.0 16.1 0.00 0.00 0.00 82 1016.5
20260906123603 21 70 4.8 12.9 0.00 0.00 0.00 82 1016.6
20260906122703 21 62 6.4 11.3 0.00 0.00 0.00 82 1016.7
20260906121803 21 59 4.8 11.3 0.00 0.00 0.00 82 1016.8
20260906120903 21 61 3.2 8.0 0.00 0.00 0.00 81 1016.6
20260906120024 21 58 3.2 8.0 0.00 0.00 0.00 81 1016.4
20260906115424 21 59 3.2 6.4 0.00 0.00 0.00 81 1016.4
20260906114524 21 59 3.2 6.4 0.00 0.00 0.00 81 1016.3
20260906113603 21 67 3.2 6.4 0.00 0.00 0.00 81 1016.2
20260906112703 22 61 1.6 6.4 0.00 0.00 0.00 80 1016.1
20260906111803 22 61 1.6 4.8 0.00 0.00 0.00 80 1016.0
20260906110903 22 61 0.0 4.8 0.00 0.00 0.00 80 1016.0
20260906110003 22 0 0.0 0.0 0.00 0.00 0.00 80 1016.0
20260906105403 22 126 0.0 1.6 0.00 0.00 0.00 80 1016.0
20260906104503 22 126 0.0 1.6 0.00 0.00 0.00 79 1015.9
20260906103603 22 102 0.0 3.2 0.00 0.00 0.00 79 1015.8
20260906102724 22 93 1.6 4.8 0.00 0.00 0.00 80 1015.6
20260906101803 22 87 4.8 11.3 0.00 0.00 0.00 80 1015.5
20260906100903 22 88 9.7 17.7 0.00 0.00 0.00 80 1015.4
20260906100003 22 90 6.4 16.1 0.00 0.00 0.00 80 1015.2
20260906095403 22 84 6.4 14.5 0.00 0.00 0.00 80 1015.1
20260906094504 22 87 6.4 17.7 0.00 0.00 0.00 80 1014.9
20260906093603 22 85 4.8 12.9 0.00 0.00 0.00 80 1014.9
20260906092703 22 88 6.4 12.9 0.00 0.00 0.00 80 1014.7
20260906091804 22 82 6.4 14.5 0.00 0.00 0.00 80 1014.7
20260906090903 22 87 6.4 14.5 0.00 0.00 0.00 80 1014.8
20260906090003 23 91 6.4 14.5 0.00 0.00 0.00 80 1014.6
20260906085403 23 88 8.0 14.5 0.00 0.00 0.00 80 1014.6
20260906084503 23 83 6.4 14.5 0.00 0.00 0.00 79 1014.8
20260906083603 23 89 6.4 14.5 0.00 0.00 0.00 79 1014.8
20260906082703 23 89 6.4 14.5 0.00 0.00 0.00 79 1014.8
20260906081803 23 89 8.0 16.1 0.00 0.00 0.00 79 1014.7
20260906080903 23 91 8.0 17.7 0.00 0.00 0.00 79 1014.8
20260906080004 23 92 8.0 17.7 0.00 0.00 0.00 79 1014.8
20260906075403 23 90 8.0 16.1 0.00 0.00 0.00 79 1014.8
20260906074524 23 85 6.4 12.9 0.00 0.00 0.00 79 1014.8
20260906073604 23 89 6.4 16.1 0.00 0.00 0.00 79 1014.8
20260906072703 23 72 6.4 19.3 0.00 0.00 0.00 78 1014.9
20260906071803 23 65 6.4 14.5 0.00 0.00 0.00 78 1014.9
20260906070903 23 70 6.4 14.5 0.00 0.00 0.00 78 1015.0
20260906070024 23 83 6.4 14.5 0.00 0.00 0.00 78 1015.0
20260906065424 23 77 6.4 14.5 0.00 0.00 0.00 78 1015.0
20260906064524 23 62 6.4 14.5 0.00 0.00 0.00 78 1015.2
20260906063603 23 61 4.8 14.5 0.00 0.00 0.00 79 1015.2
20260906062703 23 70 3.2 8.0 0.00 0.00 0.00 79 1015.2
20260906061803 23 74 1.6 6.4 0.00 0.00 0.00 79 1015.2
20260906060903 23 78 3.2 4.8 0.00 0.00 0.00 79 1015.1
20260906060003 23 77 3.2 9.7 0.00 0.00 0.00 79 1015.3
20260906055403 23 75 3.2 9.7 0.00 0.00 0.00 79 1015.3
20260906054503 23 68 3.2 8.0 0.00 0.00 0.00 79 1015.2
20260906053624 23 65 3.2 8.0 0.00 0.00 0.00 79 1015.3
20260906052703 24 64 3.2 8.0 0.00 0.00 0.00 79 1015.2
20260906051824 24 59 3.2 8.0 0.00 0.00 0.00 78 1015.1
20260906050903 24 53 3.2 6.4 0.00 0.00 0.00 78 1015.1
20260906050025 24 68 3.2 9.7 0.00 0.00 0.00 78 1014.9
20260906045403 24 73 3.2 9.7 0.00 0.00 0.00 78 1014.9
20260906044503 24 77 3.2 9.7 0.00 0.00 0.00 78 1014.8
20260906043625 25 83 4.8 11.3 0.00 0.00 0.00 78 1014.6
20260906042724 25 68 4.8 14.5 0.00 0.00 0.00 77 1014.5
20260906041803 25 65 6.4 12.9 0.00 0.00 0.00 77 1014.3
20260906040903 25 74 6.4 14.5 0.00 0.00 0.00 77 1014.3
20260906040003 25 71 6.4 14.5 0.00 0.00 0.00 77 1014.3
20260906035403 25 70 6.4 12.9 0.00 0.00 0.00 77 1014.2
20260906034503 25 66 6.4 12.9 0.00 0.00 0.00 77 1014.2
20260906033603 25 74 6.4 12.9 0.00 0.00 0.00 77 1014.0
20260906032703 25 80 8.0 14.5 0.00 0.00 0.00 77 1013.9
20260906031824 25 83 8.0 16.1 0.00 0.00 0.00 77 1013.8
20260906030903 25 87 8.0 14.5 0.00 0.00 0.00 78 1013.7
20260906030004 25 91 4.8 12.9 0.00 0.00 0.00 78 1013.6
20260906025403 26 90 4.8 11.3 0.00 0.00 0.00 78 1013.7
20260906024524 26 81 4.8 14.5 0.00 0.00 0.00 78 1013.7
20260906023603 26 71 6.4 12.9 0.00 0.00 0.00 78 1013.7
20260906022703 26 62 4.8 12.9 0.00 0.00 0.00 78 1013.6
20260906021803 26 61 3.2 8.0 0.00 0.00 0.00 78 1013.6
20260906020903 26 51 1.6 6.4 0.00 0.00 0.00 77 1013.5
20260906020003 26 59 3.2 6.4 0.00 0.00 0.00 77 1013.4
20260906015403 26 60 3.2 6.4 0.00 0.00 0.00 77 1013.3
20260906014524 26 59 3.2 8.0 0.00 0.00 0.00 77 1013.1
20260906013603 27 54 3.2 9.7 0.00 0.00 0.00 76 1012.9
20260906012703 27 59 6.4 12.9 0.00 0.00 0.00 76 1012.8
20260906011803 27 59 6.4 16.1 0.00 0.00 0.00 76 1012.6
20260906010903 27 60 6.4 12.9 0.00 0.00 0.00 76 1012.5
20260906010003 28 59 6.4 14.5 0.00 0.00 0.00 75 1012.5
20260906005403 28 59 6.4 16.1 0.00 0.00 0.00 75 1012.5
20260906004503 28 56 4.8 20.9 0.00 0.00 0.00 74 1012.6
20260906003603 29 53 6.4 14.5 0.00 0.00 0.00 73 1012.4
20260906002703 30 57 6.4 16.1 0.00 0.00 0.00 72 1012.4
20260906001803 30 62 6.4 14.5 0.00 0.00 0.00 71 1012.4
20260906000903 30 71 4.8 8.0 0.00 0.00 0.00 70 1012.3
20260906000024 30 58 4.8 8.0 0.00 0.00 0.00 69 1012.3
20260905235403 31 61 6.4 11.3 0.00 0.00 0.00 68 1012.2
20260905234504 31 64 6.4 12.9 0.00 0.00 0.00 67 1012.1
20260905233603 31 56 4.8 16.1 0.00 0.00 0.00 67 1012.2
20260905232703 31 59 1.6 6.4 0.00 0.00 0.00 67 1012.2
20260905231803 32 63 3.2 8.0 0.00 0.00 0.00 67 1012.1
20260905230924 32 62 3.2 8.0 0.00 0.00 0.00 67 1012.0
20260905230004 32 62 4.8 12.9 0.00 0.00 0.00 67 1012.0
20260905225403 32 65 8.0 16.1 0.00 0.00 0.00 65 1011.9
20260905224524 32 59 4.8 16.1 0.00 0.00 0.00 64 1011.9
20260905223603 33 52 1.6 6.4 0.00 0.00 0.00 64 1011.8
20260905222724 33 50 1.6 9.7 0.00 0.00 0.00 63 1011.8
20260905221803 33 42 1.6 6.4 0.00 0.00 0.00 62 1011.9
20260905220903 33 65 3.2 14.5 0.00 0.00 0.00 63 1011.9
20260905220003 33 20 3.2 9.7 0.00 0.00 0.00 63 1011.8
20260905215403 33 45 3.2 9.7 0.00 0.00 0.00 62 1011.7
20260905214503 33 47 1.6 6.4 0.00 0.00 0.00 62 1011.9
20260905213603 33 44 1.6 6.4 0.00 0.00 0.00 65 1011.9
20260905212703 32 48 1.6 8.0 0.00 0.00 0.00 67 1011.9
20260905211803 32 41 3.2 9.7 0.00 0.00 0.00 65 1012.0
20260905210925 33 37 1.6 11.3 0.00 0.00 0.00 65 1012.1
20260905210004 33 21 1.6 8.0 0.00 0.00 0.00 64 1012.2
20260905205424 33 23 1.6 6.4 0.00 0.00 0.00 66 1012.2
20260905204503 33 2 0.0 4.8 0.00 0.00 0.00 64 1012.3
20260905203603 33 56 3.2 11.3 0.00 0.00 0.00 64 1012.3
20260905202703 33 28 1.6 4.8 0.00 0.00 0.00 64 1012.3
20260905201803 33 4 0.0 4.8 0.00 0.00 0.00 64 1012.5
20260905200903 33 1 1.6 4.8 0.00 0.00 0.00 63 1012.5
20260905200003 32 6 1.6 4.8 0.00 0.00 0.00 65 1012.5
20260905195403 33 3 0.0 4.8 0.00 0.00 0.00 64 1012.6
20260905194503 33 358 1.6 4.8 0.00 0.00 0.00 65 1012.7
20260905193603 33 47 1.6 4.8 0.00 0.00 0.00 64 1012.6
20260905192724 33 6 1.6 4.8 0.00 0.00 0.00 63 1012.7
20260905191803 33 11 1.6 4.8 0.00 0.00 0.00 64 1012.7
20260905190903 33 45 1.6 4.8 0.00 0.00 0.00 64 1012.9
20260905190003 33 41 1.6 4.8 0.00 0.00 0.00 63 1013.0
20260905185424 33 61 3.2 9.7 0.00 0.00 0.00 63 1013.0
20260905184503 33 62 1.6 6.4 0.00 0.00 0.00 61 1012.9
20260905183603 33 39 1.6 4.8 0.00 0.00 0.00 61 1013.0
20260905182703 33 5 1.6 4.8 0.00 0.00 0.00 61 1013.0
20260905181824 33 360 1.6 4.8 0.00 0.00 0.00 62 1013.0
20260905180903 33 358 3.2 6.4 0.00 0.00 0.00 60 1013.0
20260905180003 33 38 3.2 8.0 0.00 0.00 0.00 62 1013.1
20260905175404 33 42 3.2 8.0 0.00 0.00 0.00 62 1013.1
20260905174503 33 2 3.2 8.0 0.00 0.00 0.00 61 1013.1
20260905173624 33 357 3.2 8.0 0.00 0.00 0.00 61 1013.1
20260905172703 33 28 1.6 8.0 0.00 0.00 0.00 63 1013.3
20260905171803 33 29 3.2 9.7 0.00 0.00 0.00 63 1013.3
20260905170904 33 347 3.2 6.4 0.00 0.00 0.00 64 1013.4
20260905170003 32 315 1.6 6.4 0.00 0.00 0.00 62 1013.5
20260905165403 32 328 3.2 6.4 0.00 0.00 0.00 63 1013.5
20260905164524 32 333 1.6 8.0 0.00 0.00 0.00 62 1013.5
20260905163603 32 341 1.6 8.0 0.00 0.00 0.00 64 1013.5
20260905162703 32 335 3.2 6.4 0.00 0.00 0.00 63 1013.6
20260905161824 32 342 1.6 6.4 0.00 0.00 0.00 64 1013.6
20260905160903 32 322 3.2 11.3 0.00 0.00 0.00 64 1013.5
20260905160024 32 319 3.2 8.0 0.00 0.00 0.00 62 1013.5